Year,Month,Day,Hour,Minute,Value (Times are PST for windgust in km/hr)
2012,11,18,00,00,6.40
2012,11,18,00,01,6.40
2012,11,18,00,02,3.20
2012,11,18,00,03,6.40
2012,11,18,00,04,6.40
2012,11,18,00,05,6.40
2012,11,18,00,06,8.10
2012,11,18,00,07,8.10
2012,11,18,00,08,8.10
2012,11,18,00,09,3.20
2012,11,18,00,10,6.40
2012,11,18,00,11,6.40
2012,11,18,00,12,3.20
2012,11,18,00,13,3.20
2012,11,18,00,14,8.10
2012,11,18,00,15,6.40
2012,11,18,00,17,1.60
2012,11,18,00,18,3.20
2012,11,18,00,20,8.10
2012,11,18,00,21,11.30
2012,11,18,00,22,11.30
2012,11,18,00,23,9.60
2012,11,18,00,24,6.40
2012,11,18,00,25,3.20
2012,11,18,00,26,8.10
2012,11,18,00,27,8.10
2012,11,18,00,28,8.10
2012,11,18,00,29,3.20
2012,11,18,00,30,1.60
2012,11,18,00,36,3.20
2012,11,18,00,37,3.20
2012,11,18,00,38,3.20
2012,11,18,00,39,3.20
2012,11,18,00,40,1.60
2012,11,18,00,41,3.20
2012,11,18,00,42,8.10
2012,11,18,00,43,8.10
2012,11,18,00,44,6.40
2012,11,18,00,45,3.20
2012,11,18,00,46,3.20
2012,11,18,00,47,3.20
2012,11,18,00,48,3.20
2012,11,18,00,49,4.80
2012,11,18,00,50,3.20
2012,11,18,00,51,4.80
2012,11,18,00,52,4.80
2012,11,18,00,53,3.20
2012,11,18,00,54,1.60
2012,11,18,00,55,1.60
2012,11,18,00,56,3.20
2012,11,18,00,57,4.80
2012,11,18,00,58,3.20
2012,11,18,00,59,3.20
2012,11,18,01,00,3.20
2012,11,18,01,01,3.20
2012,11,18,01,02,3.20
2012,11,18,01,06,1.60
2012,11,18,01,07,3.20
2012,11,18,01,08,4.80
2012,11,18,01,09,9.60
2012,11,18,01,10,11.30
2012,11,18,01,11,12.90
2012,11,18,01,12,14.50
2012,11,18,01,13,11.30
2012,11,18,01,14,6.40
2012,11,18,01,15,3.20
2012,11,18,01,16,6.40
2012,11,18,01,17,6.40
2012,11,18,01,18,6.40
2012,11,18,01,19,3.20
2012,11,18,01,20,6.40
2012,11,18,01,21,8.10
2012,11,18,01,22,9.60
2012,11,18,01,23,8.10
2012,11,18,01,24,9.60
2012,11,18,01,25,9.60
2012,11,18,01,26,9.60
2012,11,18,01,27,9.60
2012,11,18,01,28,9.60
2012,11,18,01,29,11.30
2012,11,18,01,30,9.60
2012,11,18,01,31,9.60
2012,11,18,01,32,8.10
2012,11,18,01,33,8.10
2012,11,18,01,34,8.10
2012,11,18,01,35,8.10
2012,11,18,01,36,6.40
2012,11,18,01,37,8.10
2012,11,18,01,38,8.10
2012,11,18,01,39,8.10
2012,11,18,01,40,3.20
2012,11,18,01,41,3.20
2012,11,18,01,42,6.40
2012,11,18,01,43,3.20
2012,11,18,01,44,3.20
2012,11,18,01,45,6.40
2012,11,18,01,46,3.20
2012,11,18,01,50,1.60
2012,11,18,01,53,1.60
2012,11,18,01,54,1.60
2012,11,18,02,00,1.60
2012,11,18,02,03,1.60
2012,11,18,02,04,1.60
2012,11,18,02,10,1.60
2012,11,18,02,11,6.40
2012,11,18,02,12,6.40
2012,11,18,02,13,6.40
2012,11,18,02,14,4.80
2012,11,18,02,15,4.80
2012,11,18,02,16,3.20
2012,11,18,02,17,4.80
2012,11,18,02,18,4.80
2012,11,18,02,19,11.30
2012,11,18,02,20,11.30
2012,11,18,02,21,3.20
2012,11,18,02,26,1.60
2012,11,18,02,27,3.20
2012,11,18,02,28,6.40
2012,11,18,02,29,3.20
2012,11,18,02,30,3.20
2012,11,18,02,31,3.20
2012,11,18,02,33,3.20
2012,11,18,02,34,8.10
2012,11,18,02,35,9.60
2012,11,18,02,36,6.40
2012,11,18,02,37,4.80
2012,11,18,02,38,4.80
2012,11,18,02,39,1.60
2012,11,18,02,45,1.60
2012,11,18,02,46,3.20
2012,11,18,02,47,1.60
2012,11,18,02,48,1.60
2012,11,18,02,51,3.20
2012,11,18,02,52,3.20
2012,11,18,02,53,4.80
2012,11,18,02,54,4.80
2012,11,18,02,55,6.40
2012,11,18,02,56,4.80
2012,11,18,02,57,6.40
2012,11,18,02,58,9.60
2012,11,18,02,59,9.60
2012,11,18,03,00,9.60
2012,11,18,03,01,9.60
2012,11,18,03,02,6.40
2012,11,18,03,03,3.20
2012,11,18,03,04,3.20
2012,11,18,03,05,6.40
2012,11,18,03,06,11.30
2012,11,18,03,07,8.10
2012,11,18,03,08,9.60
2012,11,18,03,09,8.10
2012,11,18,03,10,6.40
2012,11,18,03,11,8.10
2012,11,18,03,12,8.10
2012,11,18,03,13,8.10
2012,11,18,03,14,9.60
2012,11,18,03,15,9.60
2012,11,18,03,16,8.10
2012,11,18,03,17,9.60
2012,11,18,03,18,9.60
2012,11,18,03,19,11.30
2012,11,18,03,20,9.60
2012,11,18,03,21,9.60
2012,11,18,03,22,9.60
2012,11,18,03,23,8.10
2012,11,18,03,24,9.60
2012,11,18,03,25,11.30
2012,11,18,03,26,9.60
2012,11,18,03,27,9.60
2012,11,18,03,28,11.30
2012,11,18,03,29,8.10
2012,11,18,03,30,8.10
2012,11,18,03,31,6.40
2012,11,18,03,32,17.70
2012,11,18,03,33,16.10
2012,11,18,03,34,8.10
2012,11,18,03,35,11.30
2012,11,18,03,36,8.10
2012,11,18,03,37,8.10
2012,11,18,03,38,8.10
2012,11,18,03,39,8.10
2012,11,18,03,40,11.30
2012,11,18,03,41,14.50
2012,11,18,03,42,12.90
2012,11,18,03,43,9.60
2012,11,18,03,44,9.60
2012,11,18,03,45,9.60
2012,11,18,03,46,11.30
2012,11,18,03,47,12.90
2012,11,18,03,48,12.90
2012,11,18,03,49,11.30
2012,11,18,03,50,12.90
2012,11,18,03,51,12.90
2012,11,18,03,52,17.70
2012,11,18,03,53,16.10
2012,11,18,03,54,17.70
2012,11,18,03,55,17.70
2012,11,18,03,56,14.50
2012,11,18,03,57,12.90
2012,11,18,03,58,11.30
2012,11,18,03,59,11.30
2012,11,18,04,00,14.50
2012,11,18,04,01,14.50
2012,11,18,04,02,14.50
2012,11,18,04,03,11.30
2012,11,18,04,04,11.30
2012,11,18,04,05,12.90
2012,11,18,04,06,12.90
2012,11,18,04,07,11.30
2012,11,18,04,08,11.30
2012,11,18,04,09,9.60
2012,11,18,04,10,9.60
2012,11,18,04,11,14.50
2012,11,18,04,12,11.30
2012,11,18,04,13,12.90
2012,11,18,04,14,12.90
2012,11,18,04,15,11.30
2012,11,18,04,16,16.10
2012,11,18,04,17,12.90
2012,11,18,04,18,17.70
2012,11,18,04,19,14.50
2012,11,18,04,20,9.60
2012,11,18,04,21,9.60
2012,11,18,04,22,6.40
2012,11,18,04,23,3.20
2012,11,18,04,24,6.40
2012,11,18,04,25,8.10
2012,11,18,04,26,9.60
2012,11,18,04,27,12.90
2012,11,18,04,28,11.30
2012,11,18,04,29,11.30
2012,11,18,04,30,11.30
2012,11,18,04,31,9.60
2012,11,18,04,32,8.10
2012,11,18,04,33,8.10
2012,11,18,04,34,8.10
2012,11,18,04,35,16.10
2012,11,18,04,36,17.70
2012,11,18,04,37,20.90
2012,11,18,04,38,17.70
2012,11,18,04,39,12.90
2012,11,18,04,40,12.90
2012,11,18,04,41,17.70
2012,11,18,04,42,11.30
2012,11,18,04,43,12.90
2012,11,18,04,44,11.30
2012,11,18,04,45,9.60
2012,11,18,04,46,6.40
2012,11,18,04,47,1.60
2012,11,18,04,48,1.60
2012,11,18,04,49,8.10
2012,11,18,04,50,9.60
2012,11,18,04,51,11.30
2012,11,18,04,52,11.30
2012,11,18,04,53,12.90
2012,11,18,04,54,9.60
2012,11,18,04,55,9.60
2012,11,18,04,56,8.10
2012,11,18,04,57,1.60
2012,11,18,04,58,3.20
2012,11,18,04,59,1.60
2012,11,18,05,00,3.20
2012,11,18,05,01,8.10
2012,11,18,05,02,8.10
2012,11,18,05,03,6.40
2012,11,18,05,04,8.10
2012,11,18,05,05,8.10
2012,11,18,05,06,6.40
2012,11,18,05,07,3.20
2012,11,18,05,08,1.60
2012,11,18,05,09,3.20
2012,11,18,05,10,3.20
2012,11,18,05,11,3.20
2012,11,18,05,12,3.20
2012,11,18,05,13,4.80
2012,11,18,05,14,4.80
2012,11,18,05,15,4.80
2012,11,18,05,16,6.40
2012,11,18,05,17,9.60
2012,11,18,05,18,6.40
2012,11,18,05,19,6.40
2012,11,18,05,20,11.30
2012,11,18,05,21,8.10
2012,11,18,05,22,4.80
2012,11,18,05,23,1.60
2012,11,18,05,24,1.60
2012,11,18,05,25,1.60
2012,11,18,05,30,1.60
2012,11,18,05,31,3.20
2012,11,18,05,32,3.20
2012,11,18,05,33,3.20
2012,11,18,05,34,3.20
2012,11,18,05,35,3.20
2012,11,18,05,36,1.60
2012,11,18,05,43,3.20
2012,11,18,05,44,4.80
2012,11,18,05,45,3.20
2012,11,18,05,46,6.40
2012,11,18,05,47,6.40
2012,11,18,05,48,3.20
2012,11,18,05,49,6.40
2012,11,18,05,50,8.10
2012,11,18,05,51,8.10
2012,11,18,05,52,8.10
2012,11,18,05,53,8.10
2012,11,18,05,54,8.10
2012,11,18,05,55,1.60
2012,11,18,05,56,3.20
2012,11,18,05,57,1.60
2012,11,18,05,58,6.40
2012,11,18,05,59,6.40
2012,11,18,06,00,6.40
2012,11,18,06,01,6.40
2012,11,18,06,02,4.80
2012,11,18,06,03,1.60
2012,11,18,06,06,1.60
2012,11,18,06,07,4.80
2012,11,18,06,08,4.80
2012,11,18,06,09,8.10
2012,11,18,06,10,8.10
2012,11,18,06,11,8.10
2012,11,18,06,12,8.10
2012,11,18,06,13,9.60
2012,11,18,06,14,9.60
2012,11,18,06,15,6.40
2012,11,18,06,16,6.40
2012,11,18,06,17,6.40
2012,11,18,06,18,6.40
2012,11,18,06,19,8.10
2012,11,18,06,20,11.30
2012,11,18,06,21,8.10
2012,11,18,06,22,8.10
2012,11,18,06,23,11.30
2012,11,18,06,24,9.60
2012,11,18,06,25,6.40
2012,11,18,06,26,8.10
2012,11,18,06,27,9.60
2012,11,18,06,28,6.40
2012,11,18,06,29,14.50
2012,11,18,06,30,14.50
2012,11,18,06,31,19.30
2012,11,18,06,32,12.90
2012,11,18,06,33,12.90
2012,11,18,06,34,9.60
2012,11,18,06,35,11.30
2012,11,18,06,36,14.50
2012,11,18,06,37,14.50
2012,11,18,06,38,17.70
2012,11,18,06,39,17.70
2012,11,18,06,40,17.70
2012,11,18,06,41,14.50
2012,11,18,06,42,16.10
2012,11,18,06,43,16.10
2012,11,18,06,44,17.70
2012,11,18,06,45,16.10
2012,11,18,06,46,14.50
2012,11,18,06,47,17.70
2012,11,18,06,48,12.90
2012,11,18,06,49,11.30
2012,11,18,06,50,8.10
2012,11,18,06,51,11.30
2012,11,18,06,52,11.30
2012,11,18,06,53,12.90
2012,11,18,06,54,11.30
2012,11,18,06,55,11.30
2012,11,18,06,56,14.50
2012,11,18,06,57,9.60
2012,11,18,06,58,9.60
2012,11,18,06,59,8.10
2012,11,18,07,00,9.60
2012,11,18,07,01,11.30
2012,11,18,07,02,12.90
2012,11,18,07,03,11.30
2012,11,18,07,04,9.60
2012,11,18,07,05,9.60
2012,11,18,07,06,6.40
2012,11,18,07,07,1.60
2012,11,18,07,08,11.30
2012,11,18,07,09,11.30
2012,11,18,07,10,8.10
2012,11,18,07,11,9.60
2012,11,18,07,12,11.30
2012,11,18,07,13,9.60
2012,11,18,07,14,11.30
2012,11,18,07,15,8.10
2012,11,18,07,16,8.10
2012,11,18,07,17,1.60
2012,11,18,07,18,3.20
2012,11,18,07,26,1.60
2012,11,18,07,27,1.60
2012,11,18,07,30,1.60
2012,11,18,07,31,1.60
2012,11,18,07,32,1.60
2012,11,18,07,34,1.60
2012,11,18,07,35,1.60
2012,11,18,07,36,3.20
2012,11,18,07,37,3.20
2012,11,18,07,38,3.20
2012,11,18,07,39,3.20
2012,11,18,07,40,6.40
2012,11,18,07,41,6.40
2012,11,18,07,42,8.10
2012,11,18,07,43,6.40
2012,11,18,07,44,3.20
2012,11,18,07,45,3.20
2012,11,18,07,46,6.40
2012,11,18,07,47,6.40
2012,11,18,07,48,3.20
2012,11,18,07,49,1.60
2012,11,18,07,50,1.60
2012,11,18,07,51,3.20
2012,11,18,07,52,3.20
2012,11,18,07,53,3.20
2012,11,18,07,54,3.20
2012,11,18,07,55,3.20
2012,11,18,07,56,1.60
2012,11,18,07,57,1.60
2012,11,18,07,58,3.20
2012,11,18,07,59,1.60
2012,11,18,08,00,1.60
2012,11,18,08,03,3.20
2012,11,18,08,04,3.20
2012,11,18,08,05,1.60
2012,11,18,08,06,1.60
2012,11,18,08,07,1.60
2012,11,18,08,08,1.60
2012,11,18,08,09,4.80
2012,11,18,08,10,3.20
2012,11,18,08,11,3.20
2012,11,18,08,12,1.60
2012,11,18,08,21,1.60
2012,11,18,08,22,1.60
2012,11,18,08,23,3.20
2012,11,18,08,24,3.20
2012,11,18,08,25,3.20
2012,11,18,08,26,4.80
2012,11,18,08,31,1.60
2012,11,18,08,33,1.60
2012,11,18,08,34,3.20
2012,11,18,08,35,1.60
2012,11,18,08,36,1.60
2012,11,18,08,38,1.60
2012,11,18,08,39,1.60
2012,11,18,08,42,1.60
2012,11,18,08,43,1.60
2012,11,18,08,44,3.20
2012,11,18,08,45,3.20
2012,11,18,08,47,1.60
2012,11,18,08,48,1.60
2012,11,18,08,49,1.60
2012,11,18,08,52,1.60
2012,11,18,08,53,1.60
2012,11,18,08,54,1.60
2012,11,18,08,55,3.20
2012,11,18,08,56,3.20
2012,11,18,08,57,3.20
2012,11,18,08,58,3.20
2012,11,18,08,59,4.80
2012,11,18,09,00,4.80
2012,11,18,09,01,9.60
2012,11,18,09,02,9.60
2012,11,18,09,03,9.60
2012,11,18,09,04,9.60
2012,11,18,09,05,8.10
2012,11,18,09,06,8.10
2012,11,18,09,07,3.20
2012,11,18,09,08,3.20
2012,11,18,09,09,3.20
2012,11,18,09,10,3.20
2012,11,18,09,11,3.20
2012,11,18,09,12,3.20
2012,11,18,09,13,6.40
2012,11,18,09,14,1.60
2012,11,18,09,15,6.40
2012,11,18,09,16,3.20
2012,11,18,09,17,1.60
2012,11,18,09,20,1.60
2012,11,18,09,21,1.60
2012,11,18,09,22,1.60
2012,11,18,09,23,1.60
2012,11,18,09,24,1.60
2012,11,18,09,25,3.20
2012,11,18,09,26,1.60
2012,11,18,09,27,3.20
2012,11,18,09,28,1.60
2012,11,18,09,31,1.60
2012,11,18,09,32,1.60
2012,11,18,09,35,1.60
2012,11,18,09,36,3.20
2012,11,18,09,37,1.60
2012,11,18,09,38,3.20
2012,11,18,09,39,6.40
2012,11,18,09,40,6.40
2012,11,18,09,41,6.40
2012,11,18,09,42,3.20
2012,11,18,09,43,3.20
2012,11,18,09,44,3.20
2012,11,18,09,45,1.60
2012,11,18,09,46,1.60
2012,11,18,09,47,3.20
2012,11,18,09,48,1.60
2012,11,18,09,49,3.20
2012,11,18,09,50,3.20
2012,11,18,09,51,1.60
2012,11,18,09,52,1.60
2012,11,18,09,53,3.20
2012,11,18,09,54,3.20
2012,11,18,09,55,3.20
2012,11,18,10,01,3.20
2012,11,18,10,02,3.20
2012,11,18,10,04,1.60
2012,11,18,10,05,3.20
2012,11,18,10,06,6.40
2012,11,18,10,07,4.80
2012,11,18,10,08,4.80
2012,11,18,10,09,3.20
2012,11,18,10,10,1.60
2012,11,18,10,11,3.20
2012,11,18,10,12,1.60
2012,11,18,10,18,1.60
2012,11,18,10,19,4.80
2012,11,18,10,20,6.40
2012,11,18,10,21,1.60
2012,11,18,10,22,1.60
2012,11,18,10,23,3.20
2012,11,18,10,24,4.80
2012,11,18,10,25,9.60
2012,11,18,10,26,8.10
2012,11,18,10,27,9.60
2012,11,18,10,28,9.60
2012,11,18,10,29,19.30
2012,11,18,10,30,14.50
2012,11,18,10,31,20.90
2012,11,18,10,32,14.50
2012,11,18,10,33,19.30
2012,11,18,10,34,17.70
2012,11,18,10,35,14.50
2012,11,18,10,36,14.50
2012,11,18,10,37,11.30
2012,11,18,10,38,11.30
2012,11,18,10,39,12.90
2012,11,18,10,40,16.10
2012,11,18,10,41,27.40
2012,11,18,10,42,24.20
2012,11,18,10,43,24.20
2012,11,18,10,44,24.20
2012,11,18,10,45,22.50
2012,11,18,10,46,20.90
2012,11,18,10,47,14.50
2012,11,18,10,48,17.70
2012,11,18,10,49,19.30
2012,11,18,10,50,11.30
2012,11,18,10,51,20.90
2012,11,18,10,52,20.90
2012,11,18,10,53,19.30
2012,11,18,10,54,27.40
2012,11,18,10,55,24.20
2012,11,18,10,56,22.50
2012,11,18,10,57,20.90
2012,11,18,10,58,19.30
2012,11,18,10,59,17.70
2012,11,18,11,00,25.70
2012,11,18,11,01,22.50
2012,11,18,11,02,17.70
2012,11,18,11,03,22.50
2012,11,18,11,04,22.50
2012,11,18,11,05,16.10
2012,11,18,11,06,19.30
2012,11,18,11,07,22.50
2012,11,18,11,08,22.50
2012,11,18,11,09,20.90
2012,11,18,11,10,20.90
2012,11,18,11,11,27.40
2012,11,18,11,12,29.00
2012,11,18,11,13,30.60
2012,11,18,11,14,19.30
2012,11,18,11,15,19.30
2012,11,18,11,16,24.20
2012,11,18,11,17,25.70
2012,11,18,11,18,30.60
2012,11,18,11,19,35.40
2012,11,18,11,20,27.40
2012,11,18,11,21,27.40
2012,11,18,11,22,24.20
2012,11,18,11,23,32.20
2012,11,18,11,24,29.00
2012,11,18,11,25,20.90
2012,11,18,11,26,14.50
2012,11,18,11,27,30.60
2012,11,18,11,28,24.20
2012,11,18,11,29,27.40
2012,11,18,11,30,20.90
2012,11,18,11,31,25.70
2012,11,18,11,32,32.20
2012,11,18,11,33,30.60
2012,11,18,11,34,29.00
2012,11,18,11,35,27.40
2012,11,18,11,36,22.50
2012,11,18,11,37,29.00
2012,11,18,11,38,29.00
2012,11,18,11,39,25.70
2012,11,18,11,40,24.20
2012,11,18,11,41,29.00
2012,11,18,11,42,24.20
2012,11,18,11,43,29.00
2012,11,18,11,44,24.20
2012,11,18,11,45,29.00
2012,11,18,11,46,29.00
2012,11,18,11,47,32.20
2012,11,18,11,48,24.20
2012,11,18,11,49,22.50
2012,11,18,11,50,20.90
2012,11,18,11,51,14.50
2012,11,18,11,52,25.70
2012,11,18,11,53,35.40
2012,11,18,11,54,29.00
2012,11,18,11,55,32.20
2012,11,18,11,56,29.00
2012,11,18,11,57,22.50
2012,11,18,11,58,24.20
2012,11,18,11,59,29.00
2012,11,18,12,00,32.20
2012,11,18,12,01,25.70
2012,11,18,12,02,27.40
2012,11,18,12,03,22.50
2012,11,18,12,04,30.60
2012,11,18,12,05,24.20
2012,11,18,12,06,40.20
2012,11,18,12,07,35.40
2012,11,18,12,08,30.60
2012,11,18,12,09,32.20
2012,11,18,12,10,29.00
2012,11,18,12,11,43.50
2012,11,18,12,12,29.00
2012,11,18,12,13,32.20
2012,11,18,12,14,32.20
2012,11,18,12,15,32.20
2012,11,18,12,16,35.40
2012,11,18,12,17,43.50
2012,11,18,12,18,43.50
2012,11,18,12,19,20.90
2012,11,18,12,20,30.60
2012,11,18,12,21,29.00
2012,11,18,12,22,32.20
2012,11,18,12,23,22.50
2012,11,18,12,24,27.40
2012,11,18,12,25,27.40
2012,11,18,12,26,27.40
2012,11,18,12,27,29.00
2012,11,18,12,28,35.40
2012,11,18,12,29,35.40
2012,11,18,12,30,43.50
2012,11,18,12,31,35.40
2012,11,18,12,32,24.20
2012,11,18,12,33,41.80
2012,11,18,12,34,37.00
2012,11,18,12,35,40.20
2012,11,18,12,36,38.60
2012,11,18,12,37,22.50
2012,11,18,12,38,32.20
2012,11,18,12,39,37.00
2012,11,18,12,40,30.60
2012,11,18,12,41,38.60
2012,11,18,12,42,32.20
2012,11,18,12,43,30.60
2012,11,18,12,44,33.80
2012,11,18,12,45,38.60
2012,11,18,12,46,20.90
2012,11,18,12,47,37.00
2012,11,18,12,48,30.60
2012,11,18,12,49,35.40
2012,11,18,12,50,25.70
2012,11,18,12,51,19.30
2012,11,18,12,52,30.60
2012,11,18,12,53,35.40
2012,11,18,12,54,24.20
2012,11,18,12,55,25.70
2012,11,18,12,56,25.70
2012,11,18,12,57,27.40
2012,11,18,12,58,20.90
2012,11,18,12,59,19.30
2012,11,18,13,00,27.40
2012,11,18,13,01,30.60
2012,11,18,13,02,30.60
2012,11,18,13,03,30.60
2012,11,18,13,04,38.60
2012,11,18,13,05,30.60
2012,11,18,13,06,37.00
2012,11,18,13,07,29.00
2012,11,18,13,08,38.60
2012,11,18,13,09,30.60
2012,11,18,13,10,33.80
2012,11,18,13,11,41.80
2012,11,18,13,12,38.60
2012,11,18,13,13,29.00
2012,11,18,13,14,35.40
2012,11,18,13,15,41.80
2012,11,18,13,16,37.00
2012,11,18,13,17,29.00
2012,11,18,13,18,22.50
2012,11,18,13,19,35.40
2012,11,18,13,20,24.20
2012,11,18,13,21,20.90
2012,11,18,13,22,40.20
2012,11,18,13,23,33.80
2012,11,18,13,24,37.00
2012,11,18,13,25,33.80
2012,11,18,13,26,30.60
2012,11,18,13,27,24.20
2012,11,18,13,28,48.30
2012,11,18,13,29,38.60
2012,11,18,13,30,29.00
2012,11,18,13,31,38.60
2012,11,18,13,32,40.20
2012,11,18,13,33,35.40
2012,11,18,13,34,38.60
2012,11,18,13,35,37.00
2012,11,18,13,36,41.80
2012,11,18,13,37,30.60
2012,11,18,13,38,35.40
2012,11,18,13,39,35.40
2012,11,18,13,40,33.80
2012,11,18,13,41,29.00
2012,11,18,13,42,30.60
2012,11,18,13,43,29.00
2012,11,18,13,44,27.40
2012,11,18,13,45,45.10
2012,11,18,13,46,38.60
2012,11,18,13,47,49.90
2012,11,18,13,48,35.40
2012,11,18,13,49,46.70
2012,11,18,13,50,37.00
2012,11,18,13,51,38.60
2012,11,18,13,52,46.70
2012,11,18,13,53,41.80
2012,11,18,13,54,48.30
2012,11,18,13,55,35.40
2012,11,18,13,56,41.80
2012,11,18,13,57,37.00
2012,11,18,13,58,56.30
2012,11,18,13,59,45.10
2012,11,18,14,00,35.40
2012,11,18,14,01,38.60
2012,11,18,14,02,48.30
2012,11,18,14,03,41.80
2012,11,18,14,04,29.00
2012,11,18,14,05,35.40
2012,11,18,14,06,33.80
2012,11,18,14,07,30.60
2012,11,18,14,08,46.70
2012,11,18,14,09,32.20
2012,11,18,14,10,48.30
2012,11,18,14,11,40.20
2012,11,18,14,12,43.50
2012,11,18,14,13,32.20
2012,11,18,14,14,35.40
2012,11,18,14,15,33.80
2012,11,18,14,16,30.60
2012,11,18,14,17,35.40
2012,11,18,14,18,43.50
2012,11,18,14,19,40.20
2012,11,18,14,20,49.90
2012,11,18,14,21,45.10
2012,11,18,14,22,33.80
2012,11,18,14,23,37.00
2012,11,18,14,24,32.20
2012,11,18,14,25,25.70
2012,11,18,14,26,30.60
2012,11,18,14,27,46.70
2012,11,18,14,28,43.50
2012,11,18,14,29,29.00
2012,11,18,14,30,33.80
2012,11,18,14,31,38.60
2012,11,18,14,32,37.00
2012,11,18,14,33,30.60
2012,11,18,14,34,46.70
2012,11,18,14,35,46.70
2012,11,18,14,36,56.30
2012,11,18,14,37,48.30
2012,11,18,14,38,37.00
2012,11,18,14,39,41.80
2012,11,18,14,40,41.80
2012,11,18,14,41,30.60
2012,11,18,14,42,45.10
2012,11,18,14,43,41.80
2012,11,18,14,44,45.10
2012,11,18,14,45,38.60
2012,11,18,14,46,46.70
2012,11,18,14,47,29.00
2012,11,18,14,48,32.20
2012,11,18,14,49,46.70
2012,11,18,14,50,38.60
2012,11,18,14,51,35.40
2012,11,18,14,52,49.90
2012,11,18,14,53,41.80
2012,11,18,14,54,43.50
2012,11,18,14,55,45.10
2012,11,18,14,56,30.60
2012,11,18,14,57,45.10
2012,11,18,14,58,38.60
2012,11,18,14,59,33.80
2012,11,18,15,00,48.30
2012,11,18,15,01,48.30
2012,11,18,15,02,37.00
2012,11,18,15,03,53.10
2012,11,18,15,04,57.90
2012,11,18,15,05,53.10
2012,11,18,15,06,43.50
2012,11,18,15,07,33.80
2012,11,18,15,08,40.20
2012,11,18,15,09,67.60
2012,11,18,15,10,46.70
2012,11,18,15,11,40.20
2012,11,18,15,12,33.80
2012,11,18,15,13,45.10
2012,11,18,15,14,54.70
2012,11,18,15,15,54.70
2012,11,18,15,16,57.90
2012,11,18,15,17,48.30
2012,11,18,15,18,53.10
2012,11,18,15,19,43.50
2012,11,18,15,20,46.70
2012,11,18,15,21,59.50
2012,11,18,15,22,45.10
2012,11,18,15,23,45.10
2012,11,18,15,24,57.90
2012,11,18,15,25,46.70
2012,11,18,15,26,37.00
2012,11,18,15,27,48.30
2012,11,18,15,28,53.10
2012,11,18,15,29,40.20
2012,11,18,15,30,41.80
2012,11,18,15,31,49.90
2012,11,18,15,32,48.30
2012,11,18,15,33,46.70
2012,11,18,15,34,51.50
2012,11,18,15,35,43.50
2012,11,18,15,36,41.80
2012,11,18,15,37,43.50
2012,11,18,15,38,56.30
2012,11,18,15,39,27.40
2012,11,18,15,40,45.10
2012,11,18,15,41,43.50
2012,11,18,15,42,24.20
2012,11,18,15,43,46.70
2012,11,18,15,44,37.00
2012,11,18,15,45,37.00
2012,11,18,15,46,51.50
2012,11,18,15,47,48.30
2012,11,18,15,48,48.30
2012,11,18,15,49,49.90
2012,11,18,15,50,56.30
2012,11,18,15,51,51.50
2012,11,18,15,52,49.90
2012,11,18,15,53,56.30
2012,11,18,15,54,59.50
2012,11,18,15,55,41.80
2012,11,18,15,56,35.40
2012,11,18,15,57,46.70
2012,11,18,15,58,48.30
2012,11,18,15,59,66.00
2012,11,18,16,00,59.50
2012,11,18,16,01,45.10
2012,11,18,16,02,45.10
2012,11,18,16,03,53.10
2012,11,18,16,04,66.00
2012,11,18,16,05,45.10
2012,11,18,16,06,49.90
2012,11,18,16,07,56.30
2012,11,18,16,08,38.60
2012,11,18,16,09,32.20
2012,11,18,16,10,46.70
2012,11,18,16,11,49.90
2012,11,18,16,12,38.60
2012,11,18,16,13,38.60
2012,11,18,16,14,45.10
2012,11,18,16,15,48.30
2012,11,18,16,16,40.20
2012,11,18,16,17,40.20
2012,11,18,16,18,43.50
2012,11,18,16,19,38.60
2012,11,18,16,20,32.20
2012,11,18,16,21,51.50
2012,11,18,16,22,37.00
2012,11,18,16,23,45.10
2012,11,18,16,24,40.20
2012,11,18,16,25,40.20
2012,11,18,16,26,32.20
2012,11,18,16,27,43.50
2012,11,18,16,28,40.20
2012,11,18,16,29,37.00
2012,11,18,16,30,46.70
2012,11,18,16,31,49.90
2012,11,18,16,32,57.90
2012,11,18,16,33,43.50
2012,11,18,16,34,38.60
2012,11,18,16,35,30.60
2012,11,18,16,36,54.70
2012,11,18,16,37,49.90
2012,11,18,16,38,53.10
2012,11,18,16,39,48.30
2012,11,18,16,40,41.80
2012,11,18,16,41,40.20
2012,11,18,16,42,54.70
2012,11,18,16,43,57.90
2012,11,18,16,44,64.40
2012,11,18,16,45,51.50
2012,11,18,16,46,54.70
2012,11,18,16,47,49.90
2012,11,18,16,48,51.50
2012,11,18,16,49,33.80
2012,11,18,16,50,46.70
2012,11,18,16,51,38.60
2012,11,18,16,52,57.90
2012,11,18,16,53,56.30
2012,11,18,16,54,70.80
2012,11,18,16,55,49.90
2012,11,18,16,56,64.40
2012,11,18,16,57,59.50
2012,11,18,16,58,51.50
2012,11,18,16,59,57.90
2012,11,18,17,00,53.10
2012,11,18,17,01,49.90
2012,11,18,17,02,51.50
2012,11,18,17,03,74.00
2012,11,18,17,04,62.70
2012,11,18,17,05,38.60
2012,11,18,17,06,57.90
2012,11,18,17,07,54.70
2012,11,18,17,08,48.30
2012,11,18,17,09,46.70
2012,11,18,17,10,48.30
2012,11,18,17,11,51.50
2012,11,18,17,12,51.50
2012,11,18,17,13,48.30
2012,11,18,17,14,57.90
2012,11,18,17,15,61.20
2012,11,18,17,16,54.70
2012,11,18,17,17,49.90
2012,11,18,17,18,54.70
2012,11,18,17,19,62.70
2012,11,18,17,20,57.90
2012,11,18,17,21,70.80
2012,11,18,17,22,69.20
2012,11,18,17,23,51.50
2012,11,18,17,24,67.60
2012,11,18,17,25,54.70
2012,11,18,17,26,56.30
2012,11,18,17,27,61.20
2012,11,18,17,28,57.90
2012,11,18,17,29,45.10
2012,11,18,17,30,56.30
2012,11,18,17,31,51.50
2012,11,18,17,32,70.80
2012,11,18,17,33,49.90
2012,11,18,17,34,41.80
2012,11,18,17,35,41.80
2012,11,18,17,36,57.90
2012,11,18,17,37,57.90
2012,11,18,17,38,61.20
2012,11,18,17,39,43.50
2012,11,18,17,40,56.30
2012,11,18,17,41,59.50
2012,11,18,17,42,61.20
2012,11,18,17,43,59.50
2012,11,18,17,44,49.90
2012,11,18,17,45,57.90
2012,11,18,17,46,46.70
2012,11,18,17,47,59.50
2012,11,18,17,48,53.10
2012,11,18,17,49,57.90
2012,11,18,17,50,46.70
2012,11,18,17,51,54.70
2012,11,18,17,52,61.20
2012,11,18,17,53,59.50
2012,11,18,17,54,56.30
2012,11,18,17,55,45.10
2012,11,18,17,56,59.50
2012,11,18,17,57,69.20
2012,11,18,17,58,46.70
2012,11,18,17,59,43.50
2012,11,18,18,00,46.70
2012,11,18,18,01,61.20
2012,11,18,18,02,45.10
2012,11,18,18,03,74.00
2012,11,18,18,04,43.50
2012,11,18,18,05,49.90
2012,11,18,18,06,67.60
2012,11,18,18,07,69.20
2012,11,18,18,08,61.20
2012,11,18,18,09,48.30
2012,11,18,18,10,59.50
2012,11,18,18,11,66.00
2012,11,18,18,12,72.40
2012,11,18,18,13,61.20
2012,11,18,18,14,67.60
2012,11,18,18,15,82.10
2012,11,18,18,16,72.40
2012,11,18,18,17,56.30
2012,11,18,18,18,57.90
2012,11,18,18,19,67.60
2012,11,18,18,20,64.40
2012,11,18,18,21,49.90
2012,11,18,18,22,46.70
2012,11,18,18,23,51.50
2012,11,18,18,24,54.70
2012,11,18,18,25,51.50
2012,11,18,18,26,46.70
2012,11,18,18,27,46.70
2012,11,18,18,28,48.30
2012,11,18,18,29,49.90
2012,11,18,18,30,53.10
2012,11,18,18,31,48.30
2012,11,18,18,32,32.20
2012,11,18,18,33,62.70
2012,11,18,18,34,70.80
2012,11,18,18,35,48.30
2012,11,18,18,36,48.30
2012,11,18,18,37,48.30
2012,11,18,18,38,46.70
2012,11,18,18,39,69.20
2012,11,18,18,40,53.10
2012,11,18,18,41,59.50
2012,11,18,18,42,53.10
2012,11,18,18,43,56.30
2012,11,18,18,44,62.70
2012,11,18,18,45,69.20
2012,11,18,18,46,46.70
2012,11,18,18,47,48.30
2012,11,18,18,48,62.70
2012,11,18,18,49,74.00
2012,11,18,18,50,49.90
2012,11,18,18,51,37.00
2012,11,18,18,52,48.30
2012,11,18,18,53,43.50
2012,11,18,18,54,53.10
2012,11,18,18,55,45.10
2012,11,18,18,56,49.90
2012,11,18,18,57,72.40
2012,11,18,18,58,22.50
2012,11,18,18,59,53.10
2012,11,18,19,00,59.50
2012,11,18,19,01,59.50
2012,11,18,19,02,70.80
2012,11,18,19,03,66.00
2012,11,18,19,04,70.80
2012,11,18,19,05,74.00
2012,11,18,19,06,53.10
2012,11,18,19,07,59.50
2012,11,18,19,08,59.50
2012,11,18,19,09,57.90
2012,11,18,19,10,69.20
2012,11,18,19,11,43.50
2012,11,18,19,12,54.70
2012,11,18,19,13,49.90
2012,11,18,19,14,35.40
2012,11,18,19,15,57.90
2012,11,18,19,16,53.10